Pine Ridge, SD

11:16 PM MDT on April 28, 2017 (GMT -0600)
Pine Ridge

Weather History for KIEN - January, 2013

Change the Weather History Date:

Saturday, January 12, 2013

  Actual Average Record
Temperature  
Mean Temperature 6 °F 23 °F  
Max Temperature 11 °F 37 °F 51 °F (2002)
Min Temperature 0 °F 10 °F -20 °F (2011)
Degree Days  
Heating Degree Days 59 42  
Month to date heating degree days 518 505  
Since 1 July heating degree days 3321 3495  
Cooling Degree Days 0 0  
Month to date cooling degree days 0 0  
Year to date cooling degree days 0 0  
Moisture  
Dew Point 2 °F    
Average Humidity 84    
Maximum Humidity 95    
Minimum Humidity 73    
Precipitation  
Precipitation T in 0.00 in 0.01 in (2017)
Month to date precipitation 0.10 0.09  
Year to date precipitation 0.10 0.09  
Sea Level Pressure  
Sea Level Pressure 30.06 in    
Wind  
Wind Speed 7 mph (WNW)    
Max Wind Speed 9 mph    
Max Gust Speed 13 mph    
Visibility 3 miles    
Events Snow    
T = Trace of Precipitation, MM = Missing Value Source: NWS Daily Summary

Daily Weather History Graph

Daily Weather History Graph

Search for Another Location

Airport or City:

Trip Planner

Search our weather history database for the weather conditions in past years. The results will help you decide how hot, cold, wet, or windy it might be!

Date:

Astronomy

Jan. 12, 2013 Rise Set
Actual Time 7:19 AM MST 4:37 PM MST
Civil Twilight 6:48 AM MST 5:09 PM MST
Nautical Twilight 6:12 AM MST 5:44 PM MST
Astronomical Twilight 5:38 AM MST 6:18 PM MST
Moon 7:37 AM MST (1/12) 6:12 PM MST (1/12)
Length of Visible Light 10h 21m
Length of Day
9h 17m
New Moon, 1% of the Moon is Illuminated
Jan 12
New Moon
Jan 18
First Quarter
Jan 26
Full
Feb 3
Last Quarter
Feb 10
New

Hourly Weather History & Observations

Time (MST) Temp. Windchill Dew Point Humidity Pressure Visibility Wind Dir Wind Speed Gust Speed Precip Events Conditions
12:12 AM 8.6 °F -6.3 °F 3.2 °F 79% 29.80 in 2.0 mi West 11.5 mph 18.4 mph 0.00 in Snow Light Snow
12:18 AM 8.6 °F -11.0 °F 3.2 °F 79% 29.80 in 1.8 mi West 20.7 mph 26.5 mph 0.00 in Snow Light Snow
12:42 AM 6.8 °F -9.3 °F 3.2 °F 85% 29.81 in 2.0 mi West 12.7 mph 21.9 mph 0.00 in Snow Light Snow
12:52 AM 7.0 °F -12.1 °F 1.9 °F 80% 29.99 in 1.8 mi WNW 18.4 mph 23.0 mph 0.00 in Snow Light Snow
1:09 AM 6.8 °F -10.0 °F 1.4 °F 79% 29.82 in 2.5 mi WNW 13.8 mph - 0.00 in Snow Light Snow
1:17 AM 6.8 °F -11.3 °F 1.4 °F 79% 29.82 in 3.0 mi WNW 16.1 mph - 0.00 in Snow Light Snow
1:39 AM 6.8 °F -9.3 °F 1.4 °F 79% 29.83 in 6.0 mi West 12.7 mph - 0.00 in   Haze
1:52 AM 6.1 °F -10.2 °F 1.0 °F 80% 30.02 in 6.0 mi West 12.7 mph - 0.00 in   Haze
2:52 AM 5.0 °F -10.8 °F -0.0 °F 80% 30.05 in 8.0 mi WNW 11.5 mph - N/A   Overcast
3:52 AM 3.9 °F -8.2 °F -0.0 °F 84% 30.07 in 4.0 mi WNW 6.9 mph - 0.00 in Snow Light Snow
4:21 AM 3.2 °F -7.8 °F -0.4 °F 85% 29.89 in 5.0 mi WNW 5.8 mph - 0.00 in Snow Light Snow
4:52 AM 3.9 °F -5.3 °F -0.0 °F 84% 30.09 in 2.0 mi NW 4.6 mph - 0.00 in Snow Light Snow
5:00 AM 5.0 °F -4.1 °F 1.4 °F 85% 29.90 in 1.8 mi NW 4.6 mph - 0.00 in Snow Light Snow
5:11 AM 5.0 °F -4.1 °F 1.4 °F 85% 29.91 in 1.5 mi NW 4.6 mph - 0.00 in Snow Light Snow
5:23 AM 5.0 °F -4.1 °F 1.4 °F 85% 29.92 in 2.0 mi WNW 4.6 mph - 0.00 in Snow Light Snow
5:48 AM 5.0 °F -4.1 °F 1.4 °F 85% 29.92 in 4.0 mi West 4.6 mph - 0.00 in Snow Light Snow
5:49 AM 5.0 °F -2.1 °F 1.0 °F 84% 30.11 in 5.0 mi West 3.5 mph - 0.00 in Snow Light Snow
6:13 AM 5.0 °F -4.1 °F 1.4 °F 85% 29.93 in 2.0 mi West 4.6 mph - 0.00 in Snow Light Snow
6:26 AM 5.0 °F -6.9 °F 1.4 °F 85% 29.94 in 4.0 mi West 6.9 mph - 0.00 in Snow Light Snow
6:34 AM 5.0 °F -6.9 °F 1.4 °F 85% 29.95 in 2.5 mi West 6.9 mph - 0.00 in Snow Light Snow
6:45 AM 6.8 °F -5.9 °F 1.4 °F 79% 29.95 in 1.8 mi West 8.1 mph - 0.00 in Snow Light Snow
6:49 AM 6.8 °F -5.9 °F 1.4 °F 79% 29.95 in 2.0 mi West 8.1 mph - 0.00 in Snow Light Snow
6:52 AM 6.1 °F -5.6 °F 1.0 °F 80% 30.14 in 2.5 mi West 6.9 mph - 0.00 in Snow Light Snow
7:00 AM 6.8 °F -5.9 °F 1.4 °F 79% 29.96 in 4.0 mi West 8.1 mph - 0.00 in Snow Light Snow
7:11 AM 6.8 °F -4.8 °F 1.4 °F 79% 29.96 in 1.8 mi West 6.9 mph - 0.00 in Snow Light Snow
7:27 AM 6.8 °F -6.9 °F 1.4 °F 79% 29.97 in 1.0 mi WNW 9.2 mph - 0.00 in Snow Light Snow
7:52 AM 6.1 °F -8.7 °F 1.0 °F 80% 30.19 in 1.2 mi WNW 10.4 mph - 0.00 in Snow Light Snow
8:09 AM 6.8 °F -6.9 °F 1.4 °F 79% 30.01 in 1.5 mi WNW 9.2 mph - 0.00 in Snow Light Snow
8:52 AM 7.0 °F -6.6 °F 1.9 °F 80% 30.23 in 1.2 mi WNW 9.2 mph - 0.00 in Snow Light Snow
10:52 AM 9.0 °F -5.9 °F 3.9 °F 80% 30.25 in 2.0 mi NW 11.5 mph - 0.00 in Snow Light Snow
11:10 AM 10.4 °F -5.4 °F 3.2 °F 73% 30.05 in 2.0 mi NW 13.8 mph - 0.00 in Snow Light Snow
11:23 AM 10.4 °F -5.4 °F 3.2 °F 73% 30.04 in 1.8 mi NW 13.8 mph - 0.00 in Snow Light Snow
11:34 AM 10.4 °F -5.4 °F 3.2 °F 73% 30.04 in 2.0 mi NW 13.8 mph - 0.00 in Snow Light Snow
11:52 AM 10.0 °F -5.2 °F 3.9 °F 76% 30.23 in 2.0 mi NW 12.7 mph - 0.00 in Snow Light Snow
12:27 PM 10.4 °F -4.1 °F 3.2 °F 73% 30.03 in 1.8 mi WNW 11.5 mph - 0.00 in Snow Light Snow
12:52 PM 10.9 °F -2.6 °F 3.9 °F 73% 30.23 in 1.8 mi NW 10.4 mph - 0.00 in Snow Light Snow
12:59 PM 10.4 °F -3.3 °F 3.2 °F 73% 30.03 in 2.5 mi NW 10.4 mph - 0.00 in Snow Light Snow
1:25 PM 10.4 °F -1.5 °F 3.2 °F 73% 30.04 in 1.5 mi NW 8.1 mph - 0.00 in Snow Light Snow
1:32 PM 10.4 °F -4.8 °F 3.2 °F 73% 30.04 in 3.0 mi NNW 12.7 mph - 0.00 in Snow Light Snow
1:52 PM 10.0 °F -5.2 °F 1.9 °F 70% 30.25 in 4.0 mi NNW 12.7 mph 19.6 mph 0.00 in   Haze
2:52 PM 10.0 °F -2.9 °F 3.0 °F 73% 30.26 in 4.0 mi NNW 9.2 mph - 0.00 in   Haze
3:17 PM 10.4 °F 0.8 °F 3.2 °F 73% 30.06 in 7.0 mi NNW 5.8 mph - N/A   Overcast
3:52 PM 9.0 °F 0.6 °F 3.0 °F 77% 30.27 in 3.0 mi NW 4.6 mph - 0.00 in Snow Light Snow
4:03 PM 8.6 °F 0.1 °F 3.2 °F 79% 30.06 in 2.5 mi NW 4.6 mph - 0.00 in Snow Light Snow
4:26 PM 8.6 °F -3.7 °F 1.4 °F 73% 30.06 in 3.0 mi NNW 8.1 mph - 0.00 in Snow Light Snow
4:52 PM 6.1 °F - 1.0 °F 80% 30.27 in - Calm Calm - 0.00 in   Unknown
5:52 PM 1.9 °F - -2.0 °F 83% 30.28 in 9.0 mi Calm Calm - N/A   Mostly Cloudy
6:52 PM 1.9 °F - -0.9 °F 88% 30.29 in 10.0 mi Calm Calm - N/A   Overcast
7:52 PM 3.0 °F - -2.0 °F 80% 30.28 in 4.0 mi Calm Calm - 0.00 in Snow Light Snow
8:52 PM 3.9 °F - -0.0 °F 84% 30.28 in 4.0 mi Calm Calm - 0.00 in Snow Light Snow
9:06 PM 3.2 °F -6.2 °F 1.4 °F 92% 30.07 in 2.5 mi South 4.6 mph - 0.00 in Snow Light Snow
9:16 PM 5.0 °F - 1.4 °F 85% 30.07 in 2.5 mi Calm Calm - 0.00 in Snow Light Snow
9:41 PM 5.0 °F - 1.4 °F 85% 30.07 in 3.0 mi Calm Calm - 0.00 in Snow Light Snow
9:52 PM 5.0 °F - 1.0 °F 84% 30.28 in 4.0 mi Calm Calm - 0.00 in Snow Light Snow
11:52 PM 3.0 °F - -0.0 °F 87% 30.29 in 5.0 mi Calm Calm - 0.00 in Snow Light Snow